DW9572 Weather Reports


Display with metric or nautical units.
time (UTC)temp
F
wind
direction
speed
MPH
gust
MPH
rain 1hr
in
rain 24hr
in
rain mn
in
humidity
%
barometer
mb
20260904051518 61 276 5.0 8.0 0.00 0.00 0.00 53 1008.7
20260904050030 61 274 2.0 6.0 0.00 0.00 0.00 53 1008.7
20260904044601 61 280 5.0 7.0 0.00 0.00 0.00 52 1008.5
20260904043106 62 284 2.0 4.0 0.00 0.00 0.00 51 1008.2
20260904043001 62 278 2.0 4.0 0.00 0.00 0.00 51 1008.2
20260904041541 62 276 3.0 5.0 0.00 0.00 0.00 50 1008.0
20260904040042 63 224 4.0 5.0 0.00 0.00 0.00 49 1007.9
20260904034522 63 291 1.0 3.0 0.00 0.00 0.00 49 1008.0
20260904033021 63 250 1.0 5.0 0.00 0.00 0.00 49 1008.0
20260904031504 63 307 1.0 3.0 0.00 0.00 0.00 51 1007.8
20260904030003 65 211 3.0 6.0 0.00 0.00 0.00 46 1007.5
20260904024609 65 263 5.0 6.0 0.00 0.00 0.00 47 1007.2
20260904023046 66 269 0.0 0.0 0.00 0.00 0.00 46 1007.1
20260904021552 66 143 0.0 0.0 0.00 0.00 0.00 45 1007.2
20260904020026 67 132 0.0 2.0 0.00 0.00 0.00 45 1007.4
20260904014525 68 224 2.0 4.0 0.00 0.00 0.00 41 1007.4
20260904013007 68 190 2.0 5.0 0.00 0.00 0.00 40 1007.4
20260904011505 68 191 5.0 9.0 0.00 0.00 0.00 39 1007.4
20260904010049 69 197 8.0 12.0 0.00 0.00 0.00 38 1007.5
20260904004547 69 203 9.0 15.0 0.00 0.00 0.00 38 1007.5
20260904003030 69 200 12.0 19.0 0.00 0.00 0.00 36 1007.6
20260904001547 70 197 13.0 19.0 0.00 0.00 0.00 35 1007.6
20260904000010 70 204 14.0 18.0 0.00 0.00 0.00 34 1007.6
20260903234509 71 208 11.0 17.0 0.00 0.00 0.00 34 1007.6
20260903233051 71 222 13.0 19.0 0.00 0.00 0.00 34 1007.6
20260903231601 71 198 10.0 16.0 0.00 0.00 0.00 35 1007.7
20260903230031 72 250 11.0 19.0 0.00 0.00 0.00 34 1007.8
20260903224529 72 203 15.0 23.0 0.00 0.00 0.00 34 1008.1
20260903223005 71 236 14.0 23.0 0.00 0.00 0.00 35 1008.2
20260903221503 71 211 8.0 22.0 0.00 0.00 0.00 37 1008.2
20260903220042 71 204 7.0 17.0 0.00 0.00 0.00 38 1008.2
20260903214541 70 166 3.0 15.0 0.00 0.00 0.00 40 1008.5
20260903213035 70 219 13.0 20.0 0.00 0.00 0.00 38 1008.7
20260903211523 70 215 11.0 20.0 0.00 0.00 0.00 37 1008.8
20260903210020 69 215 11.0 20.0 0.00 0.00 0.00 39 1008.9
20260903204517 68 145 8.0 18.0 0.00 0.00 0.00 39 1009.1
20260903203014 68 153 6.0 16.0 0.00 0.00 0.00 44 1009.3
20260903201613 67 210 9.0 19.0 0.00 0.00 0.00 45 1009.5
20260903200015 67 188 8.0 19.0 0.00 0.00 0.00 44 1009.7
20260903194514 67 221 12.0 19.0 0.00 0.00 0.00 47 1009.7
20260903193017 67 266 10.0 17.0 0.00 0.00 0.00 50 1009.8
20260903191611 66 204 11.0 20.0 0.00 0.00 0.00 53 1009.9
20260903190012 66 197 12.0 19.0 0.00 0.00 0.00 54 1010.1
20260903184508 66 191 15.0 22.0 0.00 0.00 0.00 51 1010.1
20260903183017 66 203 12.0 21.0 0.00 0.00 0.00 52 1010.1
20260903181604 65 245 15.0 18.0 0.00 0.00 0.00 51 1010.1
20260903180043 65 229 15.0 21.0 0.00 0.00 0.00 51 1010.1
20260903174540 63 244 11.0 15.0 0.00 0.00 0.00 57 1010.2
20260903173019 62 207 9.0 17.0 0.00 0.00 0.00 65 1010.2
20260903171519 62 245 12.0 17.0 0.00 0.00 0.00 62 1010.3
20260903170100 61 194 8.0 14.0 0.00 0.00 0.00 66 1010.2
20260903164558 60 252 9.0 16.0 0.00 0.00 0.00 65 1010.3
20260903163056 60 250 14.0 18.0 0.00 0.00 0.00 63 1010.3
20260903161538 60 219 13.0 19.0 0.00 0.00 0.00 65 1010.2
20260903160019 59 252 11.0 14.0 0.00 0.00 0.00 65 1010.1
20260903154516 59 214 7.0 11.0 0.00 0.00 0.00 68 1010.3
20260903153054 58 204 8.0 11.0 0.00 0.00 0.00 69 1010.5
20260903151553 57 207 6.0 10.0 0.00 0.00 0.00 69 1010.5
20260903150035 58 225 5.0 7.0 0.00 0.00 0.00 69 1010.5
20260903144530 56 177 3.0 7.0 0.00 0.00 0.00 71 1010.4
20260903143014 55 187 3.0 5.0 0.00 0.00 0.00 73 1010.3
20260903141513 53 87 1.0 3.0 0.00 0.00 0.00 78 1010.1
20260903140015 52 103 4.0 8.0 0.00 0.00 0.00 78 1009.8
20260903134508 53 110 3.0 6.0 0.00 0.00 0.00 75 1009.7
20260903133003 56 162 5.0 10.0 0.00 0.00 0.00 66 1009.4
20260903131600 56 293 8.0 17.0 0.00 0.00 0.00 67 1009.0
20260903130107 54 276 12.0 17.0 0.00 0.00 0.00 73 1008.9
20260903124606 52 204 6.0 8.0 0.00 0.00 0.00 79 1009.1
20260903123040 51 215 4.0 7.0 0.00 0.00 0.00 81 1009.1
20260903121549 51 257 4.0 6.0 0.00 0.00 0.00 79 1009.1
20260903120022 51 194 1.0 3.0 0.00 0.00 0.00 79 1009.1
20260903114518 52 274 0.0 4.0 0.00 0.00 0.00 77 1009.0
20260903113055 53 309 0.0 1.0 0.00 0.00 0.00 76 1009.0
20260903111551 54 308 0.0 1.0 0.00 0.00 0.00 74 1008.9
20260903110033 54 208 2.0 5.0 0.00 0.00 0.00 75 1008.8
20260903104532 55 342 0.0 4.0 0.00 0.00 0.00 78 1008.6
20260903103020 55 6 0.0 3.0 0.00 0.00 0.00 83 1008.3
20260903101517 55 308 1.0 4.0 0.00 0.00 0.00 83 1008.4
20260903100013 56 281 4.0 5.0 0.00 0.00 0.00 84 1008.1
20260903094512 56 262 3.0 6.0 0.00 0.00 0.00 84 1007.9
20260903093011 57 269 4.0 7.0 0.00 0.00 0.00 85 1007.9
20260903091508 57 246 2.0 6.0 0.00 0.00 0.00 84 1007.9
20260903090006 58 203 3.0 6.0 0.00 0.00 0.00 84 1007.9
20260903084506 58 208 4.0 6.0 0.00 0.00 0.00 85 1007.9
20260903083048 58 204 4.0 6.0 0.00 0.00 0.00 85 1007.8
20260903081547 58 228 2.0 4.0 0.00 0.00 0.00 84 1007.7
20260903080028 58 195 2.0 5.0 0.00 0.00 0.00 84 1007.6
20260903074528 58 173 2.0 6.0 0.00 0.00 0.00 85 1007.5
20260903073029 59 233 9.0 11.0 0.00 0.00 0.00 85 1007.2
20260903071508 59 232 11.0 15.0 0.00 0.00 0.00 85 1006.9
20260903070054 59 257 9.0 14.0 0.00 0.00 0.00 83 1006.8
20260903064550 60 231 10.0 15.0 0.00 0.00 0.00 81 1006.8
20260903063032 60 271 4.0 13.0 0.00 0.00 0.00 79 1007.0
20260903061549 61 258 8.0 19.0 0.00 0.00 0.00 78 1007.0
20260903060013 61 242 13.0 22.0 0.00 0.00 0.00 78 1006.5
20260903054517 60 239 11.0 18.0 0.00 0.00 0.00 81 1006.4
20260903053054 62 241 19.0 29.0 0.00 0.00 0.00 77 1006.3